^^
Daily Summary for December 27, 2021 Units:  Metric    English   Both
Daily Weekly Monthly Yearly Custom
  High: Low: Average:
Temperature: 2.8 °C 0 °C 1.2 °C
Dew Point: 2.2 °C -0.6 °C 0.3 °C
Humidity: 95% 94% 94%
Wind Speed: 43.5km/h 0km/h 12.7km/h
Wind Gust: 41.8km/h - -
Wind- - ESE
Pressure: 1019.2 hPa 1015.8 hPa -
Precipitation: 34.29 mm    
Historical Graphs
 
 
Tabular Data for December 27, 2021
Time Temperature Dew Point Pressure Wind Wind Speed Wind Gust Humidity Rainfall Rate (Hourly) solar
00:04 1.1 °C 0.6 °C 1019.2 hPa NNE 20.9 km/h 9.7 km/h 94% 1.78 mm 0.00 W/m2
00:09 1.1 °C 0.6 °C 1019.2 hPa ENE 14.5 km/h 20.9 km/h 94% 1.78 mm 0.00 W/m2
00:14 1.1 °C 0 °C 1019.2 hPa NE 20.9 km/h 14.5 km/h 94% 1.78 mm 0.00 W/m2
00:19 1.1 °C 0 °C 1019.2 hPa NNE 32.2 km/h 20.9 km/h 94% 1.78 mm 0.00 W/m2
00:24 1.1 °C 0 °C 1019.2 hPa NNE 33.8 km/h 32.2 km/h 94% 1.78 mm 0.00 W/m2
00:29 1.1 °C 0 °C 1019.2 hPa NE 11.3 km/h 33.8 km/h 94% 1.52 mm 0.00 W/m2
00:34 1.1 °C 0 °C 1019.2 hPa NNE 33.8 km/h 19.3 km/h 94% 1.52 mm 0.00 W/m2
00:39 1.1 °C 0 °C 1019.2 hPa NE 33.8 km/h 33.8 km/h 94% 1.52 mm 0.00 W/m2
00:44 1.1 °C 0.6 °C 1019.2 hPa NNE 25.7 km/h 20.9 km/h 94% 1.78 mm 0.00 W/m2
00:49 1.1 °C 0.6 °C 1019.2 hPa NE 32.2 km/h 25.7 km/h 94% 1.78 mm 0.00 W/m2
00:54 1.1 °C 0.6 °C 1019.2 hPa ENE 25.7 km/h 32.2 km/h 94% 1.78 mm 0.00 W/m2
00:59 1.1 °C 0.6 °C 1019.2 hPa SE 25.7 km/h 25.7 km/h 94% 2.03 mm 0.00 W/m2
01:04 1.1 °C 0.6 °C 1019.2 hPa NNE 25.7 km/h 25.7 km/h 94% 1.78 mm 0.00 W/m2
01:09 1.1 °C 0.6 °C 1019.2 hPa North 29 km/h 25.7 km/h 94% 1.78 mm 0.00 W/m2
01:14 1.7 °C 0.6 °C 1019.2 hPa NNE 29 km/h 27.4 km/h 94% 2.03 mm 0.00 W/m2
01:19 1.7 °C 0.6 °C 1019.2 hPa East 17.7 km/h 27.4 km/h 94% 2.03 mm 0.00 W/m2
01:24 1.7 °C 0.6 °C 1019.2 hPa North 29 km/h 16.1 km/h 94% 2.29 mm 0.00 W/m2
01:29 1.7 °C 0.6 °C 1019.2 hPa SE 20.9 km/h 27.4 km/h 94% 2.29 mm 0.00 W/m2
01:34 1.7 °C 0.6 °C 1019.2 hPa SW 20.9 km/h 20.9 km/h 94% 2.54 mm 0.00 W/m2
01:39 1.7 °C 0.6 °C 1019.2 hPa North 11.3 km/h 20.9 km/h 94% 2.54 mm 0.00 W/m2
01:44 1.7 °C 0.6 °C 1019.2 hPa NE 17.7 km/h 11.3 km/h 94% 2.79 mm 0.00 W/m2
01:49 1.7 °C 0.6 °C 1019.2 hPa NNE 32.2 km/h 16.1 km/h 94% 2.79 mm 0.00 W/m2
01:54 1.7 °C 0.6 °C 1019.2 hPa ENE 25.7 km/h 32.2 km/h 94% 3.05 mm 0.00 W/m2
01:59 1.7 °C 0.6 °C 1015.8 hPa NNE 29 km/h 25.7 km/h 94% 3.05 mm 0.00 W/m2
02:04 1.7 °C 0.6 °C 1015.8 hPa SE 27.4 km/h 27.4 km/h 94% 3.3 mm 0.00 W/m2
02:09 1.7 °C 0.6 °C 1015.8 hPa NNE 32.2 km/h 9.7 km/h 94% 3.3 mm 0.00 W/m2
02:14 1.7 °C 0.6 °C 1015.8 hPa ENE 37 km/h 32.2 km/h 94% 3.3 mm 0.00 W/m2
02:18 1.7 °C 0.6 °C 1019.2 hPa West 14.5 km/h 37 km/h 94% 3.05 mm 0.00 W/m2
02:24 1.7 °C 0.6 °C 1015.8 hPa NE 11.3 km/h 14.5 km/h 94% 3.05 mm 0.00 W/m2
02:29 1.7 °C 0.6 °C 1015.8 hPa NE 32.2 km/h 11.3 km/h 94% 3.05 mm 0.00 W/m2
02:34 1.7 °C 0.6 °C 1015.8 hPa NNE 17.7 km/h 4.8 km/h 94% 2.79 mm 0.00 W/m2
02:39 1.7 °C 0.6 °C 1015.8 hPa NE 17.7 km/h 16.1 km/h 94% 3.05 mm 0.00 W/m2
02:44 1.7 °C 0.6 °C 1015.8 hPa NE 20.9 km/h 16.1 km/h 94% 3.05 mm 0.00 W/m2
02:49 1.7 °C 0.6 °C 1015.8 hPa North 25.7 km/h 20.9 km/h 94% 2.79 mm 0.00 W/m2
02:54 1.7 °C 0.6 °C 1015.8 hPa NNE 29 km/h 25.7 km/h 94% 2.79 mm 0.00 W/m2
02:59 1.7 °C 0.6 °C 1015.8 hPa NE 40.2 km/h 27.4 km/h 94% 2.79 mm 0.00 W/m2
03:04 1.7 °C 0.6 °C 1015.8 hPa NNE 37 km/h 40.2 km/h 94% 2.79 mm 0.00 W/m2
03:09 1.7 °C 0.6 °C 1015.8 hPa NE 43.5 km/h 37 km/h 94% 3.05 mm 0.00 W/m2
03:14 1.7 °C 0.6 °C 1015.8 hPa North 19.3 km/h 41.8 km/h 94% 3.05 mm 0.00 W/m2
03:19 1.7 °C 0.6 °C 1015.8 hPa SSE 20.9 km/h 20.9 km/h 94% 3.3 mm 0.00 W/m2
03:24 1.7 °C 0.6 °C 1015.8 hPa East 17.7 km/h 14.5 km/h 94% 3.56 mm 0.00 W/m2
03:29 1.7 °C 0.6 °C 1015.8 hPa NNE 25.7 km/h 16.1 km/h 94% 3.81 mm 0.00 W/m2
03:34 1.7 °C 0.6 °C 1015.8 hPa NNW 17.7 km/h 25.7 km/h 94% 3.81 mm 0.00 W/m2
03:39 1.1 °C 0.6 °C 1015.8 hPa North 17.7 km/h 16.1 km/h 94% 3.81 mm 0.00 W/m2
03:44 1.1 °C 0.6 °C 1015.8 hPa ESE 20.9 km/h 16.1 km/h 94% 3.81 mm 0.00 W/m2
03:49 1.1 °C 0.6 °C 1015.8 hPa NE 17.7 km/h 20.9 km/h 94% 3.56 mm 0.00 W/m2
03:54 1.1 °C 0.6 °C 1015.8 hPa NNE 17.7 km/h 16.1 km/h 94% 3.81 mm 0.00 W/m2
03:59 1.1 °C 0.6 °C 1015.8 hPa WSW 17.7 km/h 16.1 km/h 94% 3.81 mm 0.00 W/m2
04:04 1.7 °C 0.6 °C 1015.8 hPa NNE 25.7 km/h 17.7 km/h 94% 3.56 mm 0.00 W/m2
04:09 1.7 °C 0.6 °C 1015.8 hPa East 25.7 km/h 25.7 km/h 95% 3.56 mm 0.00 W/m2
04:14 1.7 °C 0.6 °C 1015.8 hPa North 32.2 km/h 20.9 km/h 95% 3.56 mm 0.00 W/m2
04:19 1.7 °C 0.6 °C 1015.8 hPa East 27.4 km/h 32.2 km/h 94% 3.81 mm 0.00 W/m2
04:24 1.7 °C 0.6 °C 1015.8 hPa ENE 25.7 km/h 20.9 km/h 94% 3.3 mm 0.00 W/m2
04:29 1.1 °C 0.6 °C 1015.8 hPa NE 25.7 km/h 25.7 km/h 94% 3.56 mm 0.00 W/m2
04:34 1.1 °C 0.6 °C 1015.8 hPa NNE 25.7 km/h 25.7 km/h 94% 3.3 mm 0.00 W/m2
04:39 1.1 °C 0.6 °C 1015.8 hPa NNE 32.2 km/h 25.7 km/h 94% 3.3 mm 0.00 W/m2
04:44 1.1 °C 0.6 °C 1015.8 hPa NE 14.5 km/h 32.2 km/h 94% 3.3 mm 0.00 W/m2
04:49 1.1 °C 0.6 °C 1015.8 hPa NNE 11.3 km/h 14.5 km/h 94% 3.56 mm 0.00 W/m2
04:54 1.1 °C 0 °C 1015.8 hPa ENE 11.3 km/h 11.3 km/h 94% 3.56 mm 0.00 W/m2
04:59 1.1 °C 0 °C 1015.8 hPa NNE 11.3 km/h 11.3 km/h 94% 3.56 mm 0.00 W/m2
05:04 1.1 °C 0 °C 1015.8 hPa NNW 17.7 km/h 11.3 km/h 94% 3.56 mm 0.00 W/m2
05:09 1.1 °C 0 °C 1015.8 hPa North 16.1 km/h 16.1 km/h 94% 3.56 mm 0.00 W/m2
05:14 1.1 °C 0 °C 1015.8 hPa NE 20.9 km/h 11.3 km/h 94% 3.56 mm 0.00 W/m2
05:19 1.1 °C 0 °C 1015.8 hPa NNE 9.7 km/h 20.9 km/h 94% 3.56 mm 0.00 W/m2
05:24 0.6 °C 0 °C 1015.8 hPa NNE 3.2 km/h   94% 3.56 mm 0.00 W/m2
05:29 0.6 °C 0 °C 1015.8 hPa NNE 9.7 km/h 9.7 km/h 94% 3.3 mm 0.00 W/m2
05:34 0.6 °C 0 °C 1015.8 hPa NNE 17.7 km/h 4.8 km/h 94% 3.3 mm 0.00 W/m2
05:39 0.6 °C 0 °C 1015.8 hPa NE 11.3 km/h 16.1 km/h 94% 3.05 mm 0.00 W/m2
05:44 0.6 °C 0 °C 1015.8 hPa NE 14.5 km/h 9.7 km/h 94% 2.79 mm 0.00 W/m2
05:49 0.6 °C 0 °C 1015.8 hPa NE 14.5 km/h 14.5 km/h 94% 2.79 mm 0.00 W/m2
05:54 0.6 °C 0 °C 1015.8 hPa NNW 3.2 km/h 14.5 km/h 94% 2.54 mm 0.00 W/m2
05:59 0.6 °C -0.6 °C 1015.8 hPa NNE 6.4 km/h 3.2 km/h 94% 2.54 mm 0.00 W/m2
06:04 0.6 °C -0.6 °C 1015.8 hPa NNE 9.7 km/h 9.7 km/h 94% 2.54 mm 0.00 W/m2
06:09 0.6 °C -0.6 °C 1015.8 hPa West 3.2 km/h 4.8 km/h 94% 2.29 mm 0.00 W/m2
06:14 0.6 °C -0.6 °C 1015.8 hPa South 11.3 km/h 3.2 km/h 94% 2.03 mm 0.00 W/m2
06:19 0.6 °C -0.6 °C 1015.8 hPa SSE 11.3 km/h 11.3 km/h 94% 2.03 mm 0.00 W/m2
06:24 0.6 °C -0.6 °C 1015.8 hPa North 11.3 km/h 9.7 km/h 94% 2.03 mm 0.00 W/m2
06:29 0.6 °C -0.6 °C 1015.8 hPa North 9.7 km/h 11.3 km/h 94% 1.78 mm 0.00 W/m2
06:34 0.6 °C -0.6 °C 1015.8 hPa North 6.4 km/h 9.7 km/h 94% 1.78 mm 0.00 W/m2
06:39 0.6 °C -0.6 °C 1015.8 hPa North 6.4 km/h 4.8 km/h 94% 2.03 mm 0.00 W/m2
06:44 0.6 °C -0.6 °C 1015.8 hPa ESE 6.4 km/h 4.8 km/h 94% 2.54 mm 0.00 W/m2
06:49 0.6 °C -0.6 °C 1015.8 hPa NNE 11.3 km/h 4.8 km/h 94% 2.54 mm 0.00 W/m2
06:54 0.6 °C 0 °C 1015.8 hPa NNE 11.3 km/h 11.3 km/h 94% 2.79 mm 0.00 W/m2
06:59 0.6 °C 0 °C 1015.8 hPa Calm   11.3 km/h 94% 3.05 mm 0.00 W/m2
07:04 0.6 °C 0 °C 1015.8 hPa North 6.4 km/h 1.6 km/h 94% 3.05 mm 0.00 W/m2
07:09 0.6 °C 0 °C 1015.8 hPa NE 14.5 km/h 8 km/h 94% 3.05 mm 0.00 W/m2
07:14 0.6 °C 0 °C 1015.8 hPa NNE 14.5 km/h 14.5 km/h 94% 3.3 mm 0.00 W/m2
07:19 0.6 °C 0 °C 1015.8 hPa North 11.3 km/h 14.5 km/h 94% 3.3 mm 0.00 W/m2
07:24 0.6 °C 0 °C 1015.8 hPa North 3.2 km/h 11.3 km/h 94% 3.56 mm 0.00 W/m2
07:29 0.6 °C 0 °C 1015.8 hPa NE 6.4 km/h 3.2 km/h 94% 3.56 mm 0.00 W/m2
07:34 0.6 °C 0 °C 1015.8 hPa NNE 1.6 km/h 4.8 km/h 94% 3.56 mm 0.00 W/m2
07:39 0.6 °C 0 °C 1015.8 hPa Calm     94% 3.56 mm 0.00 W/m2
07:44 0.6 °C -0.6 °C 1015.8 hPa Calm     94% 3.05 mm 0.00 W/m2
07:49 0.6 °C -0.6 °C 1015.8 hPa NNE 6.4 km/h 1.6 km/h 94% 2.79 mm 0.00 W/m2
07:54 0.6 °C -0.6 °C 1015.8 hPa NE 3.2 km/h 4.8 km/h 94% 2.29 mm 0.00 W/m2
07:58 0.6 °C -0.6 °C 1015.8 hPa NNE 8 km/h 3.2 km/h 94% 2.03 mm 0.00 W/m2
08:04 0.6 °C -0.6 °C 1015.8 hPa NNE 11.3 km/h 11.3 km/h 94% 1.78 mm 0.00 W/m2
08:09 0 °C -0.6 °C 1015.8 hPa NE 3.2 km/h 9.7 km/h 94% 1.52 mm 0.00 W/m2
08:14 0 °C -0.6 °C 1015.8 hPa NNW 9.7 km/h 4.8 km/h 94% 1.52 mm 0.00 W/m2
08:19 0 °C -0.6 °C 1015.8 hPa Calm   9.7 km/h 94% 1.27 mm 0.00 W/m2
08:24 0 °C -0.6 °C 1015.8 hPa NNW 6.4 km/h 3.2 km/h 94% 1.02 mm 0.00 W/m2
08:29 0 °C -0.6 °C 1015.8 hPa NNE 9.7 km/h 4.8 km/h 94% 0.76 mm 0.00 W/m2
08:34 0 °C -0.6 °C 1015.8 hPa North 6.4 km/h 9.7 km/h 94% 0.76 mm 0.00 W/m2
08:39 0 °C -0.6 °C 1015.8 hPa NNW 11.3 km/h 4.8 km/h 94% 0.76 mm 0.00 W/m2
08:44 0 °C -0.6 °C 1015.8 hPa NNE 14.5 km/h 11.3 km/h 94% 0.76 mm 0.00 W/m2
08:49 0 °C -0.6 °C 1015.8 hPa NNE 14.5 km/h 14.5 km/h 94% 1.02 mm 5.00 W/m2
08:54 0 °C -0.6 °C 1015.8 hPa North 14.5 km/h 14.5 km/h 95% 1.02 mm 5.00 W/m2
08:59 0 °C -0.6 °C 1015.8 hPa North 11.3 km/h 11.3 km/h 94% 1.27 mm 7.00 W/m2
09:04 0 °C -0.6 °C 1015.8 hPa North 11.3 km/h 11.3 km/h 94% 1.27 mm 7.00 W/m2
09:09 0 °C -0.6 °C 1015.8 hPa NE 11.3 km/h 11.3 km/h 94% 1.27 mm 7.00 W/m2
09:14 0 °C -0.6 °C 1015.8 hPa East 8 km/h 11.3 km/h 94% 1.27 mm 7.00 W/m2
09:19 0 °C -0.6 °C 1015.8 hPa North 20.9 km/h 11.3 km/h 94% 1.27 mm 11.00 W/m2
09:24 0 °C -0.6 °C 1015.8 hPa NNW 3.2 km/h 20.9 km/h 95% 1.52 mm 11.00 W/m2
09:29 0 °C -0.6 °C 1015.8 hPa NNW 9.7 km/h 3.2 km/h 95% 1.52 mm 12.00 W/m2
09:34 0 °C -0.6 °C 1015.8 hPa North 3.2 km/h 9.7 km/h 95% 1.52 mm 14.00 W/m2
09:39 0 °C -0.6 °C 1015.8 hPa North 6.4 km/h 3.2 km/h 95% 1.52 mm 18.00 W/m2
09:44 0 °C -0.6 °C 1015.8 hPa North 3.2 km/h 4.8 km/h 95% 1.52 mm 19.00 W/m2
09:49 0 °C -0.6 °C 1015.8 hPa Calm     95% 1.52 mm 18.00 W/m2
09:54 0 °C -0.6 °C 1015.8 hPa NNE 3.2 km/h   95% 1.52 mm 14.00 W/m2
09:59 0 °C -0.6 °C 1015.8 hPa NNE 3.2 km/h 3.2 km/h 95% 1.52 mm 19.00 W/m2
10:04 0 °C -0.6 °C 1015.8 hPa Calm     95% 1.27 mm 19.00 W/m2
10:09 0 °C -0.6 °C 1015.8 hPa Calm     95% 1.52 mm 18.00 W/m2
10:14 0 °C -0.6 °C 1015.8 hPa Calm     95% 1.52 mm 14.00 W/m2
10:19 0 °C -0.6 °C 1015.8 hPa Calm     95% 1.52 mm 16.00 W/m2
10:24 0 °C -0.6 °C 1015.8 hPa North 9.7 km/h 1.6 km/h 95% 1.52 mm 18.00 W/m2
10:29 0.6 °C -0.6 °C 1015.8 hPa NNE 9.7 km/h 9.7 km/h 95% 1.52 mm 14.00 W/m2
10:34 0.6 °C -0.6 °C 1015.8 hPa NNE 3.2 km/h 9.7 km/h 95% 1.78 mm 12.00 W/m2
10:39 0.6 °C -0.6 °C 1015.8 hPa Calm   3.2 km/h 95% 1.78 mm 11.00 W/m2
10:44 0.6 °C -0.6 °C 1015.8 hPa Calm     95% 1.78 mm 19.00 W/m2
10:49 0.6 °C -0.6 °C 1015.8 hPa Calm     95% 1.78 mm 32.00 W/m2
10:54 0.6 °C 0 °C 1015.8 hPa Calm     95% 1.78 mm 35.00 W/m2
10:59 0.6 °C 0 °C 1015.8 hPa NNE 3.2 km/h   95% 2.03 mm 46.00 W/m2
11:04 0.6 °C 0 °C 1015.8 hPa NNE 11.3 km/h 11.3 km/h 95% 2.03 mm 60.00 W/m2
11:08 0.6 °C 0 °C 1015.8 hPa NNE 6.4 km/h 9.7 km/h 95% 2.03 mm 69.00 W/m2
11:14 0.6 °C 0 °C 1015.8 hPa NNW 6.4 km/h 4.8 km/h 95% 2.29 mm 93.00 W/m2
11:19 1.1 °C 0 °C 1015.8 hPa NNE 11.3 km/h 9.7 km/h 95% 2.03 mm 118.00 W/m2
11:24 1.1 °C 0 °C 1015.8 hPa NNE 11.3 km/h 11.3 km/h 95% 2.29 mm 95.00 W/m2
11:29 1.1 °C 0.6 °C 1015.8 hPa NNE 9.7 km/h 9.7 km/h 95% 2.29 mm 60.00 W/m2
11:34 1.1 °C 0.6 °C 1015.8 hPa North 14.5 km/h 4.8 km/h 95% 2.29 mm 46.00 W/m2
11:39 1.1 °C 0.6 °C 1015.8 hPa NE 6.4 km/h 14.5 km/h 95% 2.29 mm 40.00 W/m2
11:44 1.1 °C 0.6 °C 1015.8 hPa NE 17.7 km/h 6.4 km/h 95% 2.03 mm 74.00 W/m2
11:49 1.1 °C 0.6 °C 1015.8 hPa NNE 9.7 km/h 16.1 km/h 95% 2.29 mm 83.00 W/m2
11:54 1.1 °C 0.6 °C 1015.8 hPa North 17.7 km/h 12.9 km/h 95% 2.29 mm 90.00 W/m2
11:59 1.1 °C 0.6 °C 1015.8 hPa NNE 6.4 km/h 16.1 km/h 95% 2.03 mm 88.00 W/m2
12:04 1.1 °C 0.6 °C 1015.8 hPa North 6.4 km/h 4.8 km/h 95% 2.03 mm 58.00 W/m2
12:09 1.1 °C 0.6 °C 1015.8 hPa NNE 11.3 km/h 4.8 km/h 95% 2.03 mm 65.00 W/m2
12:14 1.1 °C 0.6 °C 1015.8 hPa NE 11.3 km/h 11.3 km/h 95% 2.03 mm 37.00 W/m2
12:19 1.1 °C 0.6 °C 1015.8 hPa North 11.3 km/h 4.8 km/h 95% 2.03 mm 65.00 W/m2
12:24 1.1 °C 0.6 °C 1015.8 hPa North 9.7 km/h 11.3 km/h 95% 2.03 mm 79.00 W/m2
12:29 1.1 °C 0.6 °C 1015.8 hPa NNE 6.4 km/h 9.7 km/h 95% 2.29 mm 79.00 W/m2
12:34 1.7 °C 0.6 °C 1015.8 hPa NNW 6.4 km/h 4.8 km/h 95% 2.29 mm 47.00 W/m2
12:39 1.7 °C 0.6 °C 1015.8 hPa East 6.4 km/h 4.8 km/h 95% 2.29 mm 40.00 W/m2
12:44 1.7 °C 0.6 °C 1015.8 hPa NE 9.7 km/h 4.8 km/h 95% 2.03 mm 44.00 W/m2
12:49 1.7 °C 0.6 °C 1015.8 hPa East 9.7 km/h 9.7 km/h 95% 2.03 mm 33.00 W/m2
12:54 1.7 °C 0.6 °C 1015.8 hPa Calm   9.7 km/h 95% 2.03 mm 70.00 W/m2
12:59 1.7 °C 1.1 °C 1015.8 hPa NNE 17.7 km/h 3.2 km/h 95% 2.03 mm 70.00 W/m2
13:04 1.7 °C 1.1 °C 1015.8 hPa ENE 11.3 km/h 16.1 km/h 95% 2.03 mm 111.00 W/m2
13:09 1.7 °C 1.1 °C 1015.8 hPa SE 11.3 km/h 11.3 km/h 95% 2.03 mm 97.00 W/m2
13:14 1.7 °C 1.1 °C 1015.8 hPa ESE 9.7 km/h 9.7 km/h 95% 1.78 mm 47.00 W/m2
13:19 1.7 °C 1.1 °C 1015.8 hPa Calm   9.7 km/h 95% 1.78 mm 25.00 W/m2
13:24 1.7 °C 1.1 °C 1015.8 hPa Calm     95% 1.78 mm 28.00 W/m2
13:29 2.2 °C 1.1 °C 1015.8 hPa North 6.4 km/h 1.6 km/h 95% 1.52 mm 49.00 W/m2
13:34 2.2 °C 1.1 °C 1015.8 hPa Calm   4.8 km/h 95% 1.27 mm 53.00 W/m2
13:39 2.2 °C 1.1 °C 1015.8 hPa Calm     95% 1.27 mm 70.00 W/m2
13:44 2.2 °C 1.1 °C 1015.8 hPa SE 9.7 km/h 3.2 km/h 95% 1.27 mm 69.00 W/m2
13:49 2.2 °C 1.7 °C 1015.8 hPa East 6.4 km/h 9.7 km/h 95% 1.27 mm 63.00 W/m2
13:54 2.2 °C 1.7 °C 1015.8 hPa NNW 3.2 km/h 4.8 km/h 95% 1.27 mm 58.00 W/m2
13:59 2.2 °C 1.7 °C 1015.8 hPa NNW 3.2 km/h 3.2 km/h 95% 1.27 mm 30.00 W/m2
14:04 2.2 °C 1.7 °C 1015.8 hPa NNW 6.4 km/h 1.6 km/h 95% 1.02 mm 40.00 W/m2
14:09 2.2 °C 1.7 °C 1015.8 hPa Calm   4.8 km/h 95% 1.27 mm 88.00 W/m2
14:14 2.2 °C 1.7 °C 1015.8 hPa NNW 3.2 km/h   95% 1.02 mm 97.00 W/m2
14:19 2.8 °C 1.7 °C 1015.8 hPa North 9.7 km/h 3.2 km/h 95% 1.27 mm 141.00 W/m2
14:24 2.8 °C 2.2 °C 1015.8 hPa North 3.2 km/h 9.7 km/h 95% 1.02 mm 144.00 W/m2
14:29 2.8 °C 2.2 °C 1015.8 hPa North 3.2 km/h 3.2 km/h 95% 1.27 mm 95.00 W/m2
14:34 2.8 °C 2.2 °C 1015.8 hPa NNW 8 km/h 4.8 km/h 95% 1.27 mm 83.00 W/m2
14:39 2.8 °C 2.2 °C 1015.8 hPa North 9.7 km/h 1.6 km/h 95% 1.27 mm 62.00 W/m2
14:44 2.8 °C 2.2 °C 1015.8 hPa North 6.4 km/h 4.8 km/h 95% 1.27 mm 40.00 W/m2
14:49 2.8 °C 2.2 °C 1015.8 hPa NNW 6.4 km/h 4.8 km/h 95% 1.27 mm 37.00 W/m2
14:54 2.8 °C 2.2 °C 1015.8 hPa NNE 11.3 km/h 4.8 km/h 95% 1.27 mm 16.00 W/m2
14:59 2.8 °C 2.2 °C 1015.8 hPa NNE 6.4 km/h 11.3 km/h 95% 1.52 mm 19.00 W/m2
15:04 2.8 °C 2.2 °C 1015.8 hPa NE 9.7 km/h 4.8 km/h 95% 2.03 mm 30.00 W/m2
15:09 2.8 °C 2.2 °C 1015.8 hPa North 9.7 km/h 9.7 km/h 95% 2.29 mm 21.00 W/m2
15:14 2.8 °C 2.2 °C 1015.8 hPa North 3.2 km/h 9.7 km/h 95% 2.03 mm 28.00 W/m2
15:19 2.8 °C 1.7 °C 1015.8 hPa NNW 11.3 km/h 8 km/h 95% 1.78 mm 30.00 W/m2
15:24 2.8 °C 1.7 °C 1015.8 hPa ESE 17.7 km/h 14.5 km/h 95% 2.03 mm 19.00 W/m2
15:29 2.2 °C 1.7 °C 1015.8 hPa NE 14.5 km/h 16.1 km/h 95% 2.03 mm 16.00 W/m2
15:34 2.2 °C 1.7 °C 1015.8 hPa NE 20.9 km/h 14.5 km/h 95% 2.03 mm 12.00 W/m2
15:39 2.2 °C 1.1 °C 1015.8 hPa NE 11.3 km/h 20.9 km/h 95% 2.03 mm 14.00 W/m2
15:44 1.7 °C 1.1 °C 1015.8 hPa ENE 11.3 km/h 11.3 km/h 95% 2.03 mm 12.00 W/m2
15:49 1.7 °C 1.1 °C 1015.8 hPa NE 1.6 km/h 11.3 km/h 95% 2.03 mm 9.00 W/m2
15:54 1.7 °C 0.6 °C 1015.8 hPa Calm     94% 2.03 mm 7.00 W/m2
15:59 1.7 °C 0.6 °C 1015.8 hPa East 3.2 km/h   94% 1.78 mm 9.00 W/m2
16:04 1.1 °C 0.6 °C 1015.8 hPa Calm   3.2 km/h 94% 1.27 mm 9.00 W/m2
16:09 1.1 °C 0.6 °C 1015.8 hPa NNE 3.2 km/h 1.6 km/h 94% 1.02 mm 7.00 W/m2
16:14 1.1 °C 0 °C 1015.8 hPa North 9.7 km/h 9.7 km/h 94% 1.02 mm 9.00 W/m2
16:19 1.1 °C 0 °C 1015.8 hPa NNW 11.3 km/h 9.7 km/h 94% 1.02 mm 9.00 W/m2
16:24 1.1 °C 0 °C 1015.8 hPa North 6.4 km/h 11.3 km/h 94% 0.76 mm 9.00 W/m2
16:25 1.1 °C 0 °C 1015.8 hPa Calm   4.8 km/h 94% 0 mm 7.00 W/m2
El Dorado Weather
Compliments of Weather Underground - 2 mb